Terminal Aerodrome Forecast
Issued by NWS Blacksburg, VA

Current Version | Previous Version | Graphics & Text | Print | Product List | Glossary On
Versions: 1 2 3 4 5 6 7 8 9 10 11 12 13 14 15 16 17 18 19 20
000
FTUS41 KRNK 231120
TAFBLF
TAF
KBLF 231120Z 2312/2412 29004KT 1/4SM FG OVC001
      TEMPO 2312/2314 6SM BR BKN015
     FM231400 31005KT P6SM BKN025
     FM231800 32006KT P6SM VCTS BKN050CB
     FM240100 31004KT P6SM SCT120=

USA.gov is the U.S. government's official web portal to all federal, state and local government web resources and services.